Wetterdaten: aktuell Dienstag, 30.05.2023 07:08
Datum Zeit Temp. I. Temp. 2m Temp. 5cm LF I. Luftdruck Regen Wind Richtung Richtung Taupunkt Windchill Windben
30.05.2023 07:08 15,6 C 10,2 C 12,4 C 66 % 1021,8 hPa 0,0 l/m 0,0 km/h (0 Bft) S-SO 157 7,6 C 10,2 C 0,0 km/h (0 Bft)
30.05.2023 07:06 15,6 C 10,1 C 12,4 C 66 % 1021,8 hPa 0,0 l/m 0,0 km/h (0 Bft) SO 135 7,5 C 10,1 C 0,0 km/h (0 Bft)
30.05.2023 07:04 15,6 C 10,0 C 12,4 C 66 % 1021,8 hPa 0,0 l/m 0,0 km/h (0 Bft) SO 135 7,4 C 10,0 C 0,0 km/h (0 Bft)
30.05.2023 07:02 15,6 C 10,0 C 12,3 C 66 % 1021,8 hPa 0,0 l/m 0,0 km/h (0 Bft) W-SW 247 7,4 C 10,0 C 0,0 km/h (0 Bft)
30.05.2023 07:00 15,6 C 10,0 C 12,3 C 66 % 1021,8 hPa 0,0 l/m 0,2 km/h (0 Bft) S 180 7,4 C 10,0 C 0,0 km/h (0 Bft)
30.05.2023 06:58 15,6 C 9,9 C 12,3 C 66 % 1021,8 hPa 0,0 l/m 0,2 km/h (0 Bft) SO 135 7,3 C 9,9 C 0,0 km/h (0 Bft)
30.05.2023 06:56 15,6 C 9,8 C 12,1 C 66 % 1021,8 hPa 0,0 l/m 0,2 km/h (0 Bft) S-SO 157 7,2 C 9,8 C 5,1 km/h (1 Bft)
30.05.2023 06:54 15,6 C 9,8 C 12,1 C 66 % 1021,8 hPa 0,0 l/m 0,2 km/h (0 Bft) S-SO 157 7,2 C 9,8 C 0,0 km/h (0 Bft)
30.05.2023 06:52 15,6 C 9,7 C 12,1 C 66 % 1021,8 hPa 0,0 l/m 0,3 km/h (0 Bft) W 270 7,1 C 9,7 C 0,0 km/h (0 Bft)
30.05.2023 06:50 15,6 C 9,7 C 12,0 C 66 % 1021,8 hPa 0,0 l/m 0,2 km/h (0 Bft) O-SO 112 7,1 C 9,7 C 0,0 km/h (0 Bft)
30.05.2023 06:48 15,6 C 9,6 C 12,0 C 66 % 1021,8 hPa 0,0 l/m 0,2 km/h (0 Bft) SW 225 7,0 C 9,6 C 0,0 km/h (0 Bft)
30.05.2023 06:46 15,6 C 9,5 C 12,0 C 66 % 1021,9 hPa 0,0 l/m 0,2 km/h (0 Bft) W 270 6,9 C 9,5 C 0,0 km/h (0 Bft)
30.05.2023 06:44 15,6 C 9,5 C 12,0 C 66 % 1021,9 hPa 0,0 l/m 0,0 km/h (0 Bft) O-NO 67 6,9 C 9,5 C 0,0 km/h (0 Bft)
30.05.2023 06:42 15,6 C 9,4 C 11,9 C 66 % 1021,9 hPa 0,0 l/m 0,0 km/h (0 Bft) O-NO 67 6,8 C 9,4 C 0,0 km/h (0 Bft)
30.05.2023 06:40 15,6 C 9,4 C 11,8 C 66 % 1021,9 hPa 0,0 l/m 0,0 km/h (0 Bft) N-NO 22 6,8 C 9,4 C 0,0 km/h (0 Bft)
30.05.2023 06:38 15,6 C 9,3 C 11,8 C 66 % 1021,9 hPa 0,0 l/m 0,0 km/h (0 Bft) NW 315 6,7 C 9,3 C 0,0 km/h (0 Bft)
30.05.2023 06:36 15,6 C 9,3 C 11,8 C 66 % 1021,9 hPa 0,0 l/m 0,0 km/h (0 Bft) NW 315 6,7 C 9,3 C 0,0 km/h (0 Bft)
30.05.2023 06:34 15,6 C 9,1 C 11,7 C 66 % 1021,9 hPa 0,0 l/m 0,0 km/h (0 Bft) W-SW 247 6,5 C 9,1 C 0,0 km/h (0 Bft)
30.05.2023 06:32 15,6 C 9,1 C 11,6 C 66 % 1021,9 hPa 0,0 l/m 0,0 km/h (0 Bft) S-SW 202 6,5 C 9,1 C 0,0 km/h (0 Bft)
30.05.2023 06:30 15,6 C 9,0 C 11,5 C 66 % 1021,9 hPa 0,0 l/m 0,0 km/h (0 Bft) O 90 6,4 C 9,0 C 0,0 km/h (0 Bft)
30.05.2023 06:28 15,6 C 9,0 C 11,5 C 66 % 1021,9 hPa 0,0 l/m 0,0 km/h (0 Bft) N-NO 22 6,4 C 9,0 C 0,0 km/h (0 Bft)
30.05.2023 06:26 15,8 C 8,9 C 11,5 C 66 % 1021,6 hPa 0,0 l/m 0,0 km/h (0 Bft) S 180 6,3 C 8,9 C 0,0 km/h (0 Bft)
30.05.2023 06:24 15,8 C 8,9 C 11,6 C 66 % 1021,6 hPa 0,0 l/m 0,0 km/h (0 Bft) S-SO 157 6,3 C 8,9 C 0,0 km/h (0 Bft)
30.05.2023 06:22 15,8 C 8,9 C 11,5 C 66 % 1021,6 hPa 0,0 l/m 0,0 km/h (0 Bft) SO 135 6,3 C 8,9 C 0,0 km/h (0 Bft)
30.05.2023 06:20 15,6 C 8,8 C 11,4 C 66 % 1021,6 hPa 0,0 l/m 0,0 km/h (0 Bft) S 180 6,2 C 8,8 C 0,0 km/h (0 Bft)
30.05.2023 06:18 15,6 C 8,8 C 11,4 C 66 % 1021,6 hPa 0,0 l/m 0,0 km/h (0 Bft) O-SO 112 6,2 C 8,8 C 0,0 km/h (0 Bft)
30.05.2023 06:16 15,8 C 8,7 C 11,4 C 66 % 1021,6 hPa 0,0 l/m 0,0 km/h (0 Bft) S-SO 157 6,2 C 8,7 C 0,0 km/h (0 Bft)
30.05.2023 06:14 15,8 C 8,7 C 11,3 C 66 % 1021,6 hPa 0,0 l/m 0,0 km/h (0 Bft) S 180 6,2 C 8,7 C 0,0 km/h (0 Bft)
30.05.2023 06:12 15,6 C 8,7 C 11,2 C 66 % 1021,6 hPa 0,0 l/m 0,0 km/h (0 Bft) SO 135 6,2 C 8,7 C 0,0 km/h (0 Bft)
30.05.2023 06:10 15,8 C 8,7 C 11,2 C 66 % 1021,6 hPa 0,0 l/m 0,0 km/h (0 Bft) W-SW 247 6,2 C 8,7 C 0,0 km/h (0 Bft)
30.05.2023 06:08 15,6 C 8,6 C 11,2 C 66 % 1021,6 hPa 0,0 l/m 0,0 km/h (0 Bft) O-SO 112 6,1 C 8,6 C 0,0 km/h (0 Bft)
30.05.2023 06:06 15,8 C 8,6 C 11,2 C 66 % 1021,6 hPa 0,0 l/m 0,0 km/h (0 Bft) NW 315 6,1 C 8,6 C 0,0 km/h (0 Bft)
30.05.2023 06:04 15,8 C 8,5 C 11,1 C 66 % 1021,6 hPa 0,0 l/m 0,0 km/h (0 Bft) NO 45 6,0 C 8,5 C 0,0 km/h (0 Bft)
30.05.2023 06:02 15,8 C 8,5 C 11,0 C 66 % 1021,6 hPa 0,0 l/m 0,0 km/h (0 Bft) S-SO 157 6,0 C 8,5 C 0,0 km/h (0 Bft)
30.05.2023 06:00 15,8 C 8,5 C 11,0 C 66 % 1021,6 hPa 0,0 l/m 0,0 km/h (0 Bft) O 90 6,0 C 8,5 C 0,0 km/h (0 Bft)
30.05.2023 05:58 15,8 C 8,4 C 10,9 C 66 % 1021,6 hPa 0,0 l/m 0,2 km/h (0 Bft) S 180 5,9 C 8,4 C 0,0 km/h (0 Bft)
30.05.2023 05:56 15,8 C 8,3 C 10,9 C 66 % 1021,6 hPa 0,0 l/m 0,2 km/h (0 Bft) S 180 5,8 C 8,3 C 3,6 km/h (1 Bft)
30.05.2023 05:54 15,8 C 8,3 C 10,9 C 66 % 1021,6 hPa 0,0 l/m 0,2 km/h (0 Bft) S 180 5,8 C 8,3 C 0,0 km/h (0 Bft)
30.05.2023 05:52 15,8 C 8,3 C 10,8 C 66 % 1021,6 hPa 0,0 l/m 0,2 km/h (0 Bft) SW 225 5,6 C 8,3 C 0,0 km/h (0 Bft)
30.05.2023 05:50 15,8 C 8,3 C 10,8 C 66 % 1021,6 hPa 0,0 l/m 0,2 km/h (0 Bft) SW 225 5,6 C 8,3 C 0,0 km/h (0 Bft)
30.05.2023 05:48 15,8 C 8,2 C 10,8 C 66 % 1021,6 hPa 0,0 l/m 0,2 km/h (0 Bft) S 180 5,5 C 8,2 C 0,0 km/h (0 Bft)
30.05.2023 05:46 15,8 C 8,2 C 10,7 C 66 % 1021,5 hPa 0,0 l/m 0,0 km/h (0 Bft) SW 225 5,5 C 8,2 C 0,0 km/h (0 Bft)
30.05.2023 05:44 15,8 C 8,2 C 10,7 C 66 % 1021,5 hPa 0,0 l/m 0,0 km/h (0 Bft) S 180 5,5 C 8,2 C 0,0 km/h (0 Bft)
30.05.2023 05:42 15,8 C 8,2 C 10,7 C 66 % 1021,5 hPa 0,0 l/m 0,0 km/h (0 Bft) SO 135 5,5 C 8,2 C 0,0 km/h (0 Bft)
30.05.2023 05:40 15,8 C 8,2 C 10,7 C 66 % 1021,5 hPa 0,0 l/m 0,0 km/h (0 Bft) O-SO 112 5,5 C 8,2 C 0,0 km/h (0 Bft)
30.05.2023 05:38 15,8 C 8,2 C 10,5 C 66 % 1021,5 hPa 0,0 l/m 0,0 km/h (0 Bft) SO 135 5,5 C 8,2 C 0,0 km/h (0 Bft)
30.05.2023 05:36 15,8 C 8,2 C 10,5 C 66 % 1021,5 hPa 0,0 l/m 0,0 km/h (0 Bft) S-SO 157 5,5 C 8,2 C 0,0 km/h (0 Bft)
30.05.2023 05:34 15,8 C 8,2 C 10,5 C 66 % 1021,5 hPa 0,0 l/m 0,0 km/h (0 Bft) O-NO 67 5,5 C 8,2 C 0,0 km/h (0 Bft)
30.05.2023 05:32 15,8 C 8,1 C 10,5 C 66 % 1021,5 hPa 0,0 l/m 0,0 km/h (0 Bft) S 180 5,4 C 8,1 C 0,0 km/h (0 Bft)
30.05.2023 05:30 15,8 C 8,1 C 10,5 C 66 % 1021,5 hPa 0,0 l/m 0,0 km/h (0 Bft) SO 135 5,4 C 8,1 C 0,0 km/h (0 Bft)
30.05.2023 05:28 15,8 C 8,1 C 10,5 C 66 % 1021,5 hPa 0,0 l/m 0,0 km/h (0 Bft) SO 135 5,4 C 8,1 C 0,0 km/h (0 Bft)
30.05.2023 05:26 15,8 C 8,1 C 10,4 C 66 % 1021,2 hPa 0,0 l/m 0,0 km/h (0 Bft) S-SO 157 5,4 C 8,1 C 0,0 km/h (0 Bft)
30.05.2023 05:24 15,8 C 8,1 C 10,5 C 66 % 1021,2 hPa 0,0 l/m 0,0 km/h (0 Bft) S-SO 157 5,4 C 8,1 C 0,0 km/h (0 Bft)
30.05.2023 05:22 15,8 C 8,2 C 10,4 C 66 % 1021,2 hPa 0,0 l/m 0,0 km/h (0 Bft) SO 135 5,5 C 8,2 C 0,0 km/h (0 Bft)
30.05.2023 05:20 15,8 C 8,2 C 10,5 C 66 % 1021,2 hPa 0,0 l/m 0,0 km/h (0 Bft) N-NO 22 5,5 C 8,2 C 0,0 km/h (0 Bft)
30.05.2023 05:18 15,8 C 8,2 C 10,4 C 66 % 1021,2 hPa 0,0 l/m 0,0 km/h (0 Bft) O-SO 112 5,5 C 8,2 C 0,0 km/h (0 Bft)
30.05.2023 05:16 15,8 C 8,2 C 10,4 C 66 % 1021,2 hPa 0,0 l/m 0,0 km/h (0 Bft) N-NW 337 5,5 C 8,2 C 0,0 km/h (0 Bft)
30.05.2023 05:14 15,8 C 8,1 C 10,3 C 66 % 1021,2 hPa 0,0 l/m 0,0 km/h (0 Bft) O-SO 112 5,4 C 8,1 C 0,0 km/h (0 Bft)
30.05.2023 05:12 15,8 C 8,1 C 10,3 C 66 % 1021,2 hPa 0,0 l/m 0,0 km/h (0 Bft) SW 225 5,4 C 8,1 C 0,0 km/h (0 Bft)
30.05.2023 05:10 15,8 C 8,2 C 10,2 C 66 % 1021,2 hPa 0,0 l/m 0,0 km/h (0 Bft) SO 135 5,5 C 8,2 C 0,0 km/h (0 Bft)
30.05.2023 05:08 15,8 C 8,2 C 10,2 C 66 % 1021,2 hPa 0,0 l/m 0,0 km/h (0 Bft) W-SW 247 5,3 C 8,2 C 0,0 km/h (0 Bft)
30.05.2023 05:06 15,8 C 8,2 C 10,2 C 66 % 1021,4 hPa 0,0 l/m 0,0 km/h (0 Bft) SW 225 5,3 C 8,2 C 0,0 km/h (0 Bft)
30.05.2023 05:02 15,8 C 8,2 C 10,4 C 66 % 1021,4 hPa 0,0 l/m 0,0 km/h (0 Bft) NO 45 5,3 C 8,2 C 0,0 km/h (0 Bft)
30.05.2023 05:00 15,8 C 8,2 C 10,4 C 66 % 1021,4 hPa 0,0 l/m 0,0 km/h (0 Bft) W 270 5,3 C 8,2 C 0,0 km/h (0 Bft)
30.05.2023 04:58 15,8 C 8,3 C 10,4 C 66 % 1021,4 hPa 0,0 l/m 0,0 km/h (0 Bft) S-SO 157 5,4 C 8,3 C 0,0 km/h (0 Bft)
30.05.2023 04:56 15,8 C 8,3 C 10,5 C 66 % 1021,4 hPa 0,0 l/m 0,0 km/h (0 Bft) S 180 5,4 C 8,3 C 0,0 km/h (0 Bft)
30.05.2023 04:54 15,9 C 8,3 C 10,4 C 66 % 1021,4 hPa 0,0 l/m 0,0 km/h (0 Bft) S-SO 157 5,4 C 8,3 C 0,0 km/h (0 Bft)
30.05.2023 04:52 15,9 C 8,3 C 10,4 C 66 % 1021,4 hPa 0,0 l/m 0,0 km/h (0 Bft) SW 225 5,4 C 8,3 C 0,0 km/h (0 Bft)
30.05.2023 04:50 15,9 C 8,4 C 10,3 C 66 % 1021,4 hPa 0,0 l/m 0,0 km/h (0 Bft) S-SO 157 5,5 C 8,4 C 0,0 km/h (0 Bft)
30.05.2023 04:48 15,9 C 8,4 C 10,4 C 66 % 1021,4 hPa 0,0 l/m 0,0 km/h (0 Bft) O-SO 112 5,5 C 8,4 C 0,0 km/h (0 Bft)
30.05.2023 04:46 15,9 C 8,4 C 10,4 C 66 % 1021,3 hPa 0,0 l/m 0,0 km/h (0 Bft) SO 135 5,5 C 8,4 C 0,0 km/h (0 Bft)
30.05.2023 04:44 15,9 C 8,4 C 10,5 C 66 % 1021,3 hPa 0,0 l/m 0,2 km/h (0 Bft) S-SO 157 5,5 C 8,4 C 0,0 km/h (0 Bft)
30.05.2023 04:42 15,9 C 8,5 C 10,5 C 66 % 1021,3 hPa 0,0 l/m 0,3 km/h (0 Bft) W-SW 247 5,6 C 8,5 C 0,0 km/h (0 Bft)
30.05.2023 04:40 15,9 C 8,5 C 10,5 C 66 % 1021,3 hPa 0,0 l/m 0,2 km/h (0 Bft) SO 135 5,6 C 8,5 C 0,0 km/h (0 Bft)
30.05.2023 04:38 15,9 C 8,5 C 10,5 C 66 % 1021,3 hPa 0,0 l/m 0,2 km/h (0 Bft) SW 225 5,6 C 8,5 C 0,0 km/h (0 Bft)
30.05.2023 04:36 15,9 C 8,5 C 10,5 C 66 % 1021,3 hPa 0,0 l/m 0,2 km/h (0 Bft) S-SW 202 5,6 C 8,5 C 2,9 km/h (1 Bft)
30.05.2023 04:34 15,9 C 8,5 C 10,4 C 66 % 1021,3 hPa 0,0 l/m 0,2 km/h (0 Bft) SO 135 5,6 C 8,5 C 2,9 km/h (1 Bft)
30.05.2023 04:32 15,9 C 8,5 C 10,4 C 66 % 1021,3 hPa 0,0 l/m 0,0 km/h (0 Bft) S-SO 157 5,6 C 8,5 C 0,0 km/h (0 Bft)
30.05.2023 04:30 15,9 C 8,5 C 10,4 C 66 % 1021,3 hPa 0,0 l/m 0,0 km/h (0 Bft) S 180 5,6 C 8,5 C 0,0 km/h (0 Bft)
30.05.2023 04:28 15,9 C 8,5 C 10,5 C 66 % 1021,3 hPa 0,0 l/m 0,0 km/h (0 Bft) SO 135 5,6 C 8,5 C 0,0 km/h (0 Bft)
30.05.2023 04:26 15,9 C 8,5 C 10,5 C 66 % 1021,4 hPa 0,0 l/m 0,0 km/h (0 Bft) SO 135 5,6 C 8,5 C 0,0 km/h (0 Bft)
30.05.2023 04:24 15,8 C 8,5 C 10,5 C 66 % 1021,4 hPa 0,0 l/m 0,0 km/h (0 Bft) S-SO 157 5,6 C 8,5 C 0,0 km/h (0 Bft)
30.05.2023 04:22 15,9 C 8,5 C 10,4 C 66 % 1021,4 hPa 0,0 l/m 0,0 km/h (0 Bft) S-SO 157 5,6 C 8,5 C 0,0 km/h (0 Bft)
30.05.2023 04:20 15,8 C 8,4 C 10,3 C 66 % 1021,4 hPa 0,0 l/m 0,0 km/h (0 Bft) W-SW 247 5,3 C 8,4 C 0,0 km/h (0 Bft)
30.05.2023 04:18 15,8 C 8,4 C 10,3 C 66 % 1021,4 hPa 0,0 l/m 0,0 km/h (0 Bft) S-SO 157 5,3 C 8,4 C 0,0 km/h (0 Bft)
30.05.2023 04:16 15,8 C 8,4 C 10,3 C 66 % 1021,4 hPa 0,0 l/m 0,0 km/h (0 Bft) W-SW 247 5,3 C 8,4 C 0,0 km/h (0 Bft)
30.05.2023 04:14 15,8 C 8,5 C 10,4 C 66 % 1021,4 hPa 0,0 l/m 0,0 km/h (0 Bft) S 180 5,4 C 8,5 C 0,0 km/h (0 Bft)
30.05.2023 04:12 15,8 C 8,5 C 10,4 C 66 % 1021,4 hPa 0,0 l/m 0,0 km/h (0 Bft) SO 135 5,4 C 8,5 C 0,0 km/h (0 Bft)
30.05.2023 04:10 15,8 C 8,5 C 10,4 C 66 % 1021,4 hPa 0,0 l/m 0,0 km/h (0 Bft) S 180 5,4 C 8,5 C 0,0 km/h (0 Bft)
30.05.2023 04:08 15,8 C 8,5 C 10,5 C 66 % 1021,4 hPa 0,0 l/m 0,0 km/h (0 Bft) O-NO 67 5,4 C 8,5 C 0,0 km/h (0 Bft)
30.05.2023 04:06 16,0 C 8,5 C 10,4 C 66 % 1021,3 hPa 0,0 l/m 0,0 km/h (0 Bft) S 180 5,4 C 8,5 C 0,0 km/h (0 Bft)
30.05.2023 04:04 15,8 C 8,5 C 10,5 C 66 % 1021,3 hPa 0,0 l/m 0,0 km/h (0 Bft) S 180 5,4 C 8,5 C 0,0 km/h (0 Bft)
30.05.2023 04:02 16,0 C 8,5 C 10,4 C 66 % 1021,3 hPa 0,0 l/m 0,0 km/h (0 Bft) SO 135 5,4 C 8,5 C 0,0 km/h (0 Bft)
30.05.2023 04:00 16,0 C 8,5 C 10,4 C 66 % 1021,3 hPa 0,0 l/m 0,0 km/h (0 Bft) S-SO 157 5,4 C 8,5 C 0,0 km/h (0 Bft)
30.05.2023 03:58 16,0 C 8,5 C 10,4 C 66 % 1021,3 hPa 0,0 l/m 0,0 km/h (0 Bft) S-SO 157 5,4 C 8,5 C 0,0 km/h (0 Bft)
30.05.2023 03:56 16,0 C 8,5 C 10,4 C 66 % 1021,3 hPa 0,0 l/m 0,0 km/h (0 Bft) S 180 5,4 C 8,5 C 0,0 km/h (0 Bft)
30.05.2023 03:54 16,0 C 8,5 C 10,4 C 66 % 1021,3 hPa 0,0 l/m 0,0 km/h (0 Bft) SW 225 5,4 C 8,5 C 0,0 km/h (0 Bft)
30.05.2023 03:52 16,0 C 8,5 C 10,4 C 66 % 1021,3 hPa 0,0 l/m 0,0 km/h (0 Bft) S-SW 202 5,4 C 8,5 C 0,0 km/h (0 Bft)
30.05.2023 03:50 16,0 C 8,4 C 10,3 C 66 % 1021,3 hPa 0,0 l/m 0,0 km/h (0 Bft) S-SO 157 5,3 C 8,4 C 0,0 km/h (0 Bft)
30.05.2023 03:48 16,0 C 8,4 C 10,2 C 66 % 1021,3 hPa 0,0 l/m 0,0 km/h (0 Bft) SW 225 5,3 C 8,4 C 0,0 km/h (0 Bft)
30.05.2023 03:46 16,0 C 8,4 C 10,3 C 66 % 1021,4 hPa 0,0 l/m 0,0 km/h (0 Bft) S 180 5,3 C 8,4 C 0,0 km/h (0 Bft)
30.05.2023 03:44 16,0 C 8,5 C 10,3 C 66 % 1021,4 hPa 0,0 l/m 0,0 km/h (0 Bft) SW 225 5,4 C 8,5 C 0,0 km/h (0 Bft)
30.05.2023 03:42 16,0 C 8,5 C 10,4 C 66 % 1021,4 hPa 0,0 l/m 0,0 km/h (0 Bft) S-SO 157 5,4 C 8,5 C 0,0 km/h (0 Bft)
30.05.2023 03:40 16,0 C 8,5 C 10,3 C 66 % 1021,4 hPa 0,0 l/m 0,0 km/h (0 Bft) S-SO 157 5,4 C 8,5 C 0,0 km/h (0 Bft)
30.05.2023 03:38 16,0 C 8,5 C 10,4 C 66 % 1021,4 hPa 0,0 l/m 0,2 km/h (0 Bft) SO 135 5,4 C 8,5 C 0,0 km/h (0 Bft)
30.05.2023 03:36 16,0 C 8,5 C 10,3 C 67 % 1021,4 hPa 0,0 l/m 0,2 km/h (0 Bft) SO 135 5,4 C 8,5 C 3,4 km/h (1 Bft)
30.05.2023 03:34 16,0 C 8,5 C 10,2 C 67 % 1021,4 hPa 0,0 l/m 0,2 km/h (0 Bft) SO 135 5,4 C 8,5 C 0,0 km/h (0 Bft)
30.05.2023 03:32 16,0 C 8,5 C 10,1 C 66 % 1021,4 hPa 0,0 l/m 0,2 km/h (0 Bft) S 180 5,3 C 8,5 C 0,0 km/h (0 Bft)
30.05.2023 03:30 16,0 C 8,6 C 10,2 C 66 % 1021,4 hPa 0,0 l/m 0,2 km/h (0 Bft) SO 135 5,3 C 8,6 C 0,0 km/h (0 Bft)
30.05.2023 03:28 16,0 C 8,6 C 10,2 C 67 % 1021,4 hPa 0,0 l/m 0,0 km/h (0 Bft) O-NO 67 5,3 C 8,6 C 0,0 km/h (0 Bft)
30.05.2023 03:26 16,0 C 8,6 C 10,2 C 67 % 1021,6 hPa 0,0 l/m 0,0 km/h (0 Bft) S-SO 157 5,3 C 8,6 C 0,0 km/h (0 Bft)
30.05.2023 03:24 16,0 C 8,6 C 10,1 C 67 % 1021,6 hPa 0,0 l/m 0,0 km/h (0 Bft) SO 135 5,3 C 8,6 C 0,0 km/h (0 Bft)
30.05.2023 03:22 16,0 C 8,6 C 10,1 C 67 % 1021,6 hPa 0,0 l/m 0,0 km/h (0 Bft) SO 135 5,3 C 8,6 C 0,0 km/h (0 Bft)
30.05.2023 03:20 16,0 C 8,6 C 10,1 C 67 % 1021,6 hPa 0,0 l/m 0,0 km/h (0 Bft) SO 135 5,3 C 8,6 C 0,0 km/h (0 Bft)
30.05.2023 03:18 16,0 C 8,6 C 10,1 C 67 % 1021,6 hPa 0,0 l/m 0,0 km/h (0 Bft) S-SO 157 5,3 C 8,6 C 0,0 km/h (0 Bft)
30.05.2023 03:16 16,0 C 8,6 C 10,2 C 67 % 1021,6 hPa 0,0 l/m 0,0 km/h (0 Bft) SO 135 5,3 C 8,6 C 0,0 km/h (0 Bft)
30.05.2023 03:15 16,0 C 8,6 C 10,1 C 67 % 1021,6 hPa 0,0 l/m 0,0 km/h (0 Bft) S-SO 157 5,3 C 8,6 C 0,0 km/h (0 Bft)
30.05.2023 03:12 16,0 C 8,6 C 10,2 C 67 % 1021,6 hPa 0,0 l/m 0,0 km/h (0 Bft) SO 135 5,3 C 8,6 C 0,0 km/h (0 Bft)
30.05.2023 03:10 16,0 C 8,6 C 10,2 C 67 % 1021,6 hPa 0,0 l/m 0,0 km/h (0 Bft) S-SO 157 5,3 C 8,6 C 0,0 km/h (0 Bft)
30.05.2023 03:08 15,9 C 8,6 C 10,1 C 67 % 1021,6 hPa 0,0 l/m 0,0 km/h (0 Bft) S-SO 157 5,3 C 8,6 C 0,0 km/h (0 Bft)
30.05.2023 03:06 16,0 C 8,6 C 10,2 C 67 % 1021,4 hPa 0,0 l/m 0,0 km/h (0 Bft) S 180 5,3 C 8,6 C 0,0 km/h (0 Bft)
30.05.2023 03:04 15,9 C 8,7 C 10,2 C 67 % 1021,4 hPa 0,0 l/m 0,0 km/h (0 Bft) S-SO 157 5,4 C 8,7 C 0,0 km/h (0 Bft)
30.05.2023 03:02 15,9 C 8,7 C 10,2 C 67 % 1021,4 hPa 0,0 l/m 0,0 km/h (0 Bft) S 180 5,4 C 8,7 C 0,0 km/h (0 Bft)
30.05.2023 03:00 15,9 C 8,7 C 10,2 C 67 % 1021,4 hPa 0,0 l/m 0,0 km/h (0 Bft) S 180 5,4 C 8,7 C 0,0 km/h (0 Bft)
30.05.2023 02:58 15,9 C 8,7 C 10,2 C 67 % 1021,4 hPa 0,0 l/m 0,0 km/h (0 Bft) SW 225 5,3 C 8,7 C 0,0 km/h (0 Bft)
30.05.2023 02:56 15,9 C 8,7 C 10,2 C 67 % 1021,4 hPa 0,0 l/m 0,0 km/h (0 Bft) S-SO 157 5,3 C 8,7 C 0,0 km/h (0 Bft)
30.05.2023 02:54 15,9 C 8,7 C 10,3 C 67 % 1021,4 hPa 0,0 l/m 0,0 km/h (0 Bft) SW 225 5,3 C 8,7 C 0,0 km/h (0 Bft)
30.05.2023 02:52 15,9 C 8,7 C 10,1 C 67 % 1021,4 hPa 0,0 l/m 0,0 km/h (0 Bft) S-SO 157 5,3 C 8,7 C 0,0 km/h (0 Bft)
30.05.2023 02:50 15,9 C 8,8 C 10,1 C 67 % 1021,4 hPa 0,0 l/m 0,0 km/h (0 Bft) SO 135 5,4 C 8,8 C 0,0 km/h (0 Bft)
30.05.2023 02:48 15,9 C 8,8 C 10,1 C 67 % 1021,4 hPa 0,0 l/m 0,0 km/h (0 Bft) O-NO 67 5,4 C 8,8 C 0,0 km/h (0 Bft)
30.05.2023 02:46 15,9 C 8,8 C 10,2 C 67 % 1021,6 hPa 0,0 l/m 0,0 km/h (0 Bft) NO 45 5,4 C 8,8 C 0,0 km/h (0 Bft)
30.05.2023 02:44 15,9 C 8,9 C 10,5 C 67 % 1021,6 hPa 0,0 l/m 0,0 km/h (0 Bft) N-NO 22 5,5 C 8,9 C 0,0 km/h (0 Bft)
30.05.2023 02:42 15,9 C 8,8 C 10,3 C 67 % 1021,6 hPa 0,0 l/m 0,0 km/h (0 Bft) N-NO 22 5,4 C 8,8 C 0,0 km/h (0 Bft)
30.05.2023 02:40 15,9 C 8,9 C 10,2 C 67 % 1021,6 hPa 0,0 l/m 0,0 km/h (0 Bft) O-NO 67 5,5 C 8,9 C 0,0 km/h (0 Bft)
30.05.2023 02:38 15,9 C 9,0 C 10,2 C 67 % 1021,6 hPa 0,0 l/m 0,0 km/h (0 Bft) N-NO 22 5,4 C 9,0 C 0,0 km/h (0 Bft)
30.05.2023 02:36 15,9 C 9,0 C 10,2 C 67 % 1021,6 hPa 0,0 l/m 0,0 km/h (0 Bft) O-SO 112 5,4 C 9,0 C 0,0 km/h (0 Bft)
30.05.2023 02:34 15,9 C 9,0 C 10,3 C 67 % 1021,6 hPa 0,0 l/m 0,0 km/h (0 Bft) SO 135 5,4 C 9,0 C 0,0 km/h (0 Bft)
30.05.2023 02:32 15,9 C 9,0 C 10,4 C 67 % 1021,6 hPa 0,0 l/m 0,0 km/h (0 Bft) SO 135 5,4 C 9,0 C 0,0 km/h (0 Bft)
30.05.2023 02:30 15,9 C 9,1 C 10,4 C 67 % 1021,6 hPa 0,0 l/m 0,0 km/h (0 Bft) NO 45 5,5 C 9,1 C 0,0 km/h (0 Bft)
30.05.2023 02:28 16,1 C 9,1 C 10,3 C 67 % 1021,6 hPa 0,0 l/m 0,0 km/h (0 Bft) W 270 5,5 C 9,1 C 0,0 km/h (0 Bft)
30.05.2023 02:26 16,1 C 9,1 C 10,4 C 67 % 1021,7 hPa 0,0 l/m 0,0 km/h (0 Bft) SO 135 5,5 C 9,1 C 0,0 km/h (0 Bft)
30.05.2023 02:24 16,1 C 9,3 C 10,4 C 67 % 1021,7 hPa 0,0 l/m 0,0 km/h (0 Bft) NW 315 5,7 C 9,3 C 2,7 km/h (1 Bft)
30.05.2023 02:22 16,1 C 9,3 C 10,3 C 67 % 1021,7 hPa 0,0 l/m 0,0 km/h (0 Bft) S-SO 157 5,7 C 9,3 C 2,7 km/h (1 Bft)
30.05.2023 02:20 16,1 C 9,3 C 10,4 C 67 % 1021,7 hPa 0,0 l/m 0,0 km/h (0 Bft) O-SO 112 5,7 C 9,3 C 0,0 km/h (0 Bft)
30.05.2023 02:18 16,1 C 9,3 C 10,3 C 67 % 1021,7 hPa 0,0 l/m 0,0 km/h (0 Bft) S-SO 157 5,7 C 9,3 C 0,0 km/h (0 Bft)
30.05.2023 02:16 16,1 C 9,3 C 10,3 C 67 % 1021,7 hPa 0,0 l/m 0,0 km/h (0 Bft) S 180 5,7 C 9,3 C 0,0 km/h (0 Bft)
30.05.2023 02:14 16,1 C 9,3 C 10,4 C 67 % 1021,7 hPa 0,0 l/m 0,0 km/h (0 Bft) W-NW 292 5,7 C 9,3 C 0,0 km/h (0 Bft)
30.05.2023 02:12 16,1 C 9,3 C 10,3 C 67 % 1021,7 hPa 0,0 l/m 0,0 km/h (0 Bft) S 180 5,7 C 9,3 C 0,0 km/h (0 Bft)
30.05.2023 02:10 16,1 C 9,3 C 10,5 C 67 % 1021,7 hPa 0,0 l/m 0,0 km/h (0 Bft) W-SW 247 5,7 C 9,3 C 0,0 km/h (0 Bft)
30.05.2023 02:08 16,1 C 9,3 C 10,5 C 67 % 1021,7 hPa 0,0 l/m 0,0 km/h (0 Bft) SW 225 5,5 C 9,3 C 0,0 km/h (0 Bft)
30.05.2023 02:06 16,1 C 9,3 C 10,4 C 67 % 1021,6 hPa 0,0 l/m 0,0 km/h (0 Bft) NW 315 5,5 C 9,3 C 0,0 km/h (0 Bft)
30.05.2023 02:04 16,1 C 9,3 C 10,5 C 67 % 1021,6 hPa 0,0 l/m 0,0 km/h (0 Bft) O 90 5,5 C 9,3 C 0,0 km/h (0 Bft)
30.05.2023 02:02 16,1 C 9,3 C 10,5 C 67 % 1021,6 hPa 0,0 l/m 0,2 km/h (0 Bft) SO 135 5,5 C 9,3 C 0,0 km/h (0 Bft)
30.05.2023 02:00 16,1 C 9,4 C 10,5 C 67 % 1021,6 hPa 0,0 l/m 0,2 km/h (0 Bft) SW 225 5,6 C 9,4 C 0,0 km/h (0 Bft)
30.05.2023 01:58 16,1 C 9,4 C 10,6 C 67 % 1021,6 hPa 0,0 l/m 0,2 km/h (0 Bft) SW 225 5,6 C 9,4 C 0,0 km/h (0 Bft)
30.05.2023 01:56 16,1 C 9,4 C 10,6 C 67 % 1021,6 hPa 0,0 l/m 0,2 km/h (0 Bft) SO 135 5,6 C 9,4 C 0,0 km/h (0 Bft)
30.05.2023 01:54 16,1 C 9,4 C 10,5 C 67 % 1021,6 hPa 0,0 l/m 0,2 km/h (0 Bft) SO 135 5,6 C 9,4 C 2,9 km/h (1 Bft)
30.05.2023 01:52 16,1 C 9,5 C 10,4 C 67 % 1021,6 hPa 0,0 l/m 0,0 km/h (0 Bft) S 180 5,7 C 9,5 C 2,9 km/h (1 Bft)
30.05.2023 01:50 16,1 C 9,5 C 10,4 C 67 % 1021,6 hPa 0,0 l/m 0,0 km/h (0 Bft) SO 135 5,7 C 9,5 C 0,0 km/h (0 Bft)
30.05.2023 01:48 16,1 C 9,5 C 10,5 C 67 % 1021,6 hPa 0,0 l/m 0,0 km/h (0 Bft) S-SO 157 5,7 C 9,5 C 0,0 km/h (0 Bft)
30.05.2023 01:46 16,1 C 9,7 C 10,5 C 67 % 1021,6 hPa 0,0 l/m 0,0 km/h (0 Bft) SW 225 5,9 C 9,7 C 0,0 km/h (0 Bft)
30.05.2023 01:44 16,1 C 9,7 C 10,4 C 67 % 1021,6 hPa 0,0 l/m 0,0 km/h (0 Bft) S-SO 157 5,9 C 9,7 C 0,0 km/h (0 Bft)
30.05.2023 01:42 16,1 C 9,8 C 10,5 C 67 % 1021,6 hPa 0,0 l/m 0,0 km/h (0 Bft) SO 135 6,0 C 9,8 C 0,0 km/h (0 Bft)
30.05.2023 01:40 16,1 C 9,8 C 10,6 C 67 % 1021,6 hPa 0,0 l/m 0,0 km/h (0 Bft) S 180 6,0 C 9,8 C 0,0 km/h (0 Bft)
30.05.2023 01:38 16,1 C 9,9 C 10,7 C 67 % 1021,6 hPa 0,0 l/m 0,0 km/h (0 Bft) SO 135 5,9 C 9,9 C 0,0 km/h (0 Bft)
30.05.2023 01:36 16,1 C 9,9 C 10,7 C 67 % 1021,6 hPa 0,0 l/m 0,2 km/h (0 Bft) O 90 5,9 C 9,9 C 3,1 km/h (1 Bft)
30.05.2023 01:34 16,1 C 9,9 C 10,6 C 67 % 1021,6 hPa 0,0 l/m 0,2 km/h (0 Bft) SO 135 5,9 C 9,9 C 0,0 km/h (0 Bft)
30.05.2023 01:32 16,1 C 10,0 C 10,6 C 67 % 1021,6 hPa 0,0 l/m 0,2 km/h (0 Bft) SO 135 6,0 C 10,0 C 0,0 km/h (0 Bft)
30.05.2023 01:30 16,1 C 10,0 C 10,6 C 67 % 1021,6 hPa 0,0 l/m 0,2 km/h (0 Bft) S-SO 157 6,0 C 10,0 C 0,0 km/h (0 Bft)
30.05.2023 01:28 16,2 C 10,0 C 10,8 C 67 % 1021,6 hPa 0,0 l/m 0,2 km/h (0 Bft) O-SO 112 6,0 C 10,0 C 0,0 km/h (0 Bft)
30.05.2023 01:26 16,1 C 10,1 C 10,7 C 67 % 1021,6 hPa 0,0 l/m 0,0 km/h (0 Bft) S-SO 157 6,1 C 10,1 C 0,0 km/h (0 Bft)
30.05.2023 01:24 16,1 C 10,1 C 10,8 C 67 % 1021,6 hPa 0,0 l/m 0,0 km/h (0 Bft) S-SO 157 6,1 C 10,1 C 0,0 km/h (0 Bft)
30.05.2023 01:22 16,1 C 10,1 C 10,7 C 67 % 1021,6 hPa 0,0 l/m 0,0 km/h (0 Bft) S-SO 157 6,1 C 10,1 C 0,0 km/h (0 Bft)
30.05.2023 01:20 16,1 C 10,1 C 10,7 C 67 % 1021,6 hPa 0,0 l/m 0,0 km/h (0 Bft) S-SO 157 6,1 C 10,1 C 0,0 km/h (0 Bft)
30.05.2023 01:18 16,2 C 10,1 C 10,7 C 67 % 1021,6 hPa 0,0 l/m 0,0 km/h (0 Bft) SO 135 6,1 C 10,1 C 0,0 km/h (0 Bft)
30.05.2023 01:16 16,1 C 10,1 C 10,7 C 67 % 1021,6 hPa 0,0 l/m 0,0 km/h (0 Bft) S-SO 157 5,9 C 10,1 C 0,0 km/h (0 Bft)
30.05.2023 01:14 16,2 C 10,2 C 10,8 C 67 % 1021,6 hPa 0,0 l/m 0,0 km/h (0 Bft) S-SO 157 6,0 C 10,2 C 0,0 km/h (0 Bft)
30.05.2023 01:12 16,2 C 10,2 C 10,8 C 67 % 1021,6 hPa 0,0 l/m 0,0 km/h (0 Bft) S-SO 157 6,0 C 10,2 C 0,0 km/h (0 Bft)
30.05.2023 01:10 16,2 C 10,2 C 10,8 C 67 % 1021,6 hPa 0,0 l/m 0,0 km/h (0 Bft) S-SO 157 6,0 C 10,2 C 0,0 km/h (0 Bft)
30.05.2023 01:08 16,2 C 10,3 C 10,7 C 67 % 1021,6 hPa 0,0 l/m 0,0 km/h (0 Bft) S 180 6,1 C 10,3 C 0,0 km/h (0 Bft)
30.05.2023 01:06 16,2 C 10,3 C 10,8 C 67 % 1021,7 hPa 0,0 l/m 0,0 km/h (0 Bft) S-SW 202 6,1 C 10,3 C 0,0 km/h (0 Bft)
30.05.2023 01:04 16,2 C 10,3 C 10,8 C 67 % 1021,7 hPa 0,0 l/m 0,0 km/h (0 Bft) O 90 6,1 C 10,3 C 0,0 km/h (0 Bft)
30.05.2023 01:02 16,2 C 10,4 C 10,8 C 67 % 1021,7 hPa 0,0 l/m 0,0 km/h (0 Bft) SO 135 6,2 C 10,4 C 0,0 km/h (0 Bft)
30.05.2023 01:00 16,2 C 10,5 C 10,8 C 67 % 1021,7 hPa 0,0 l/m 0,0 km/h (0 Bft) SO 135 6,3 C 10,5 C 0,0 km/h (0 Bft)
30.05.2023 00:58 16,2 C 10,5 C 10,9 C 67 % 1021,7 hPa 0,0 l/m 0,0 km/h (0 Bft) N-NW 337 6,3 C 10,5 C 0,0 km/h (0 Bft)
30.05.2023 00:56 16,2 C 10,5 C 10,9 C 67 % 1021,7 hPa 0,0 l/m 0,0 km/h (0 Bft) N 360 6,3 C 10,5 C 0,0 km/h (0 Bft)
30.05.2023 00:54 16,2 C 10,6 C 11,0 C 67 % 1021,7 hPa 0,0 l/m 0,0 km/h (0 Bft) W 270 6,4 C 10,6 C 0,0 km/h (0 Bft)
30.05.2023 00:52 16,2 C 10,6 C 11,2 C 67 % 1021,7 hPa 0,0 l/m 0,0 km/h (0 Bft) N-NO 22 6,2 C 10,6 C 0,0 km/h (0 Bft)
30.05.2023 00:50 16,2 C 10,6 C 11,2 C 67 % 1021,7 hPa 0,0 l/m 0,0 km/h (0 Bft) S 180 6,2 C 10,6 C 0,0 km/h (0 Bft)
30.05.2023 00:48 16,2 C 10,7 C 11,3 C 67 % 1021,7 hPa 0,0 l/m 0,0 km/h (0 Bft) O-SO 112 6,3 C 10,7 C 0,0 km/h (0 Bft)
30.05.2023 00:46 16,2 C 10,6 C 11,2 C 67 % 1021,8 hPa 0,0 l/m 0,0 km/h (0 Bft) S-SO 157 6,2 C 10,6 C 0,0 km/h (0 Bft)
30.05.2023 00:44 16,2 C 10,6 C 11,2 C 67 % 1021,8 hPa 0,0 l/m 0,0 km/h (0 Bft) O-NO 67 6,2 C 10,6 C 0,0 km/h (0 Bft)
30.05.2023 00:42 16,2 C 10,7 C 11,2 C 67 % 1021,8 hPa 0,0 l/m 0,0 km/h (0 Bft) NW 315 6,3 C 10,7 C 0,0 km/h (0 Bft)
30.05.2023 00:40 16,2 C 10,7 C 11,3 C 67 % 1021,8 hPa 0,0 l/m 0,0 km/h (0 Bft) SO 135 6,3 C 10,7 C 0,0 km/h (0 Bft)
30.05.2023 00:38 16,2 C 10,7 C 11,3 C 67 % 1021,8 hPa 0,0 l/m 0,0 km/h (0 Bft) SO 135 6,3 C 10,7 C 0,0 km/h (0 Bft)
30.05.2023 00:36 16,2 C 10,7 C 11,3 C 67 % 1021,8 hPa 0,0 l/m 0,0 km/h (0 Bft) W 270 6,3 C 10,7 C 0,0 km/h (0 Bft)
30.05.2023 00:34 16,2 C 10,7 C 11,2 C 67 % 1021,8 hPa 0,0 l/m 0,0 km/h (0 Bft) O-SO 112 6,3 C 10,7 C 0,0 km/h (0 Bft)
30.05.2023 00:32 16,2 C 10,8 C 11,2 C 67 % 1021,8 hPa 0,0 l/m 0,0 km/h (0 Bft) NW 315 6,4 C 10,8 C 0,0 km/h (0 Bft)
30.05.2023 00:30 16,2 C 10,9 C 11,3 C 67 % 1021,8 hPa 0,0 l/m 0,0 km/h (0 Bft) N-NW 337 6,5 C 10,9 C 0,0 km/h (0 Bft)
30.05.2023 00:28 16,2 C 10,9 C 11,3 C 67 % 1021,8 hPa 0,0 l/m 0,0 km/h (0 Bft) O-SO 112 6,3 C 10,9 C 0,0 km/h (0 Bft)
30.05.2023 00:26 16,2 C 11,0 C 11,4 C 67 % 1021,8 hPa 0,0 l/m 0,0 km/h (0 Bft) W-NW 292 6,4 C 11,0 C 0,0 km/h (0 Bft)
30.05.2023 00:24 16,2 C 11,0 C 11,4 C 67 % 1021,8 hPa 0,0 l/m 0,0 km/h (0 Bft) SO 135 6,4 C 11,0 C 0,0 km/h (0 Bft)
30.05.2023 00:22 16,2 C 11,1 C 11,3 C 67 % 1021,8 hPa 0,0 l/m 0,0 km/h (0 Bft) W 270 6,4 C 11,1 C 0,0 km/h (0 Bft)
30.05.2023 00:20 16,2 C 11,1 C 11,3 C 67 % 1021,8 hPa 0,0 l/m 0,0 km/h (0 Bft) W-NW 292 6,4 C 11,1 C 0,0 km/h (0 Bft)
30.05.2023 00:18 16,2 C 11,1 C 11,4 C 67 % 1021,8 hPa 0,0 l/m 0,0 km/h (0 Bft) S-SO 157 6,4 C 11,1 C 0,0 km/h (0 Bft)
30.05.2023 00:16 16,2 C 11,3 C 11,4 C 67 % 1021,8 hPa 0,0 l/m 0,0 km/h (0 Bft) N-NW 337 6,6 C 11,3 C 0,0 km/h (0 Bft)
30.05.2023 00:14 16,2 C 11,4 C 11,4 C 67 % 1021,8 hPa 0,0 l/m 0,0 km/h (0 Bft) S 180 6,7 C 11,4 C 0,0 km/h (0 Bft)
30.05.2023 00:12 16,2 C 11,4 C 11,5 C 67 % 1021,8 hPa 0,0 l/m 0,0 km/h (0 Bft) SO 135 6,7 C 11,4 C 0,0 km/h (0 Bft)
30.05.2023 00:10 16,2 C 11,4 C 11,5 C 67 % 1021,8 hPa 0,0 l/m 0,0 km/h (0 Bft) SO 135 6,5 C 11,4 C 0,0 km/h (0 Bft)
30.05.2023 00:08 16,2 C 11,5 C 11,6 C 67 % 1021,8 hPa 0,0 l/m 0,0 km/h (0 Bft) W-SW 247 6,6 C 11,5 C 0,0 km/h (0 Bft)
30.05.2023 00:06 16,2 C 11,5 C 11,6 C 67 % 1021,8 hPa 0,0 l/m 0,0 km/h (0 Bft) S-SW 202 6,6 C 11,5 C 0,0 km/h (0 Bft)
30.05.2023 00:04 16,2 C 11,5 C 11,6 C 67 % 1021,8 hPa 0,0 l/m 0,0 km/h (0 Bft) S 180 6,6 C 11,5 C 0,0 km/h (0 Bft)
30.05.2023 00:02 16,2 C 11,6 C 11,6 C 67 % 1021,8 hPa 0,0 l/m 0,0 km/h (0 Bft) S 180 6,7 C 11,6 C 0,0 km/h (0 Bft)
30.05.2023 00:00 16,2 C 11,6 C 11,6 C 67 % 1021,8 hPa 0,0 l/m 0,0 km/h (0 Bft) S 180 6,7 C 11,6 C 0,0 km/h (0 Bft)
_ Min-Zeit 06:08 05:12 02:48 03:30 05:08 - 00:00 - - 03:32 05:12 00:00
Minimum _ 15,6 C 8,1 C 10,1 C 66 % 1021,2 hPa - 0,0 km/h (0 Bft) - - 5,3 C 8,1 C 0,0 km/h (0 Bft)
_ Max-Zeit 00:00 00:00 07:04 00:00 06:28 00:00 04:42 - - 07:08 00:00 06:56
Maximum _ 16,2 C 11,6 C 12,4 C 67 % 1021,9 hPa 0,0 l/m 0,3 km/h
W-SW (0 Bft)
- - 7,6 C 11,6 C 5,1 km/h
S-SO (1 Bft)
Durchschnitt _ 15,9 C 9,2 C 10,8 C 66 % 1021,6 hPa #0,0 l/m 0,0 km/h (0 Bft) N - 5,9 C 9,2 C 0,1 km/h (0 Bft)